Location: Newark
(48.6461°N, 4.3644°W)
Time: 03:28:58
(UTC+00:00)

Transit 4A - Pass Details

Date: 29 January 2020
Orbit: 872 x 973 km, 66.8° (Epoch: 17 February)

Event Time Altitude Azimuth Distance (km) Brightness Sun altitude
Rises 10:17:40 0° 305° (NW) 3,495 10.3 17.1°
Reaches altitude 10° 10:21:50 10° 333° (NNW) 2,541 9.7 17.4°
Maximum altitude 10:24:23 13° 359° (N) 2,336 9.6 17.7°
Drops below altitude 10° 10:26:56 10° 25° (NNE) 2,532 9.9 17.9°
Sets 10:31:04 0° 54° (NE) 3,469 10.8 18.2°
